Weather History for KCEW - January, 2013

Change the Weather History Date:

Wednesday, January 23, 2013

  Actual Average Record
Temperature  
Mean Temperature 48 °F -  
Max Temperature 66 °F 60 °F 77 °F (1950)
Min Temperature 30 °F 36 °F 19 °F (2011)
Degree Days  
Heating Degree Days 17    
Moisture  
Dew Point 37 °F    
Average Humidity 73    
Maximum Humidity 97    
Minimum Humidity 36    
Precipitation  
Precipitation 0.00 in - - ()
Sea Level Pressure  
Sea Level Pressure 30.36 in    
Wind  
Wind Speed 1 mph (SW)    
Max Wind Speed 10 mph    
Max Gust Speed -    
Visibility 9 miles    
Events      
Averages and records for this station are not official NWS values.
T = Trace of Precipitation, MM = Missing Value Source: NWS Daily Summary

Daily Weather History Graph

Daily Weather History Graph

Search for Another Location

Airport or City:

Trip Planner

Search our weather history database for the weather conditions in past years. The results will help you decide how hot, cold, wet, or windy it might be!

Date:

Astronomy

Jan. 23, 2013 Rise Set
Actual Time 6:42 AM CST 5:14 PM CST
Civil Twilight 6:16 AM CST 5:40 PM CST
Nautical Twilight 5:47 AM CST 6:09 PM CST
Astronomical Twilight 5:18 AM CST 6:38 PM CST
Moon 2:27 PM CST (1/23) 3:50 AM CST (1/23)
Length of Visible Light 11h 23m
Length of Day
10h 32m
Waxing Gibbous, 89% of the Moon is Illuminated
Jan 23
Waxing Gibbous
Jan 26
Full
Feb 3
Last Quarter
Feb 10
New
Feb 17
First Quarter

Hourly Weather History & Observations

Time (CST) Temp. Dew Point Humidity Pressure Visibility Wind Dir Wind Speed Gust Speed Precip Events Conditions
12:53 AM 32.0 °F 30.0 °F 92% 30.37 in 10.0 mi Calm Calm - N/A   Clear
1:53 AM 32.0 °F 30.0 °F 92% 30.35 in 9.0 mi Calm Calm - N/A   Clear
2:53 AM 32.0 °F 30.0 °F 92% 30.35 in 9.0 mi Calm Calm - N/A   Clear
3:53 AM 30.9 °F 28.9 °F 92% 30.35 in 9.0 mi Calm Calm - N/A   Clear
4:53 AM 30.0 °F 28.9 °F 96% 30.36 in 9.0 mi Calm Calm - N/A   Clear
5:53 AM 30.0 °F 28.0 °F 92% 30.40 in 9.0 mi Calm Calm - N/A   Clear
6:53 AM 32.0 °F 30.9 °F 96% 30.42 in 9.0 mi Calm Calm - N/A   Overcast
7:53 AM 37.0 °F 33.1 °F 86% 30.42 in 10.0 mi Calm Calm - N/A   Partly Cloudy
8:53 AM 46.9 °F 34.0 °F 61% 30.43 in 10.0 mi Calm Calm - N/A   Clear
9:53 AM 55.9 °F 30.9 °F 39% 30.44 in 10.0 mi Variable 3.5 mph - N/A   Partly Cloudy
10:53 AM 59.0 °F 32.0 °F 36% 30.43 in 10.0 mi Calm Calm - N/A   Clear
11:53 AM 62.1 °F 37.0 °F 39% 30.39 in 10.0 mi West 4.6 mph - N/A   Clear
12:53 PM 64.0 °F 39.9 °F 41% 30.35 in 10.0 mi WSW 4.6 mph - N/A   Scattered Clouds
1:53 PM 64.9 °F 41.0 °F 42% 30.33 in 10.0 mi Calm Calm - N/A   Overcast
2:53 PM 66.0 °F 43.0 °F 43% 30.32 in 10.0 mi West 3.5 mph - N/A   Partly Cloudy
3:53 PM 64.9 °F 44.1 °F 47% 30.32 in 10.0 mi South 8.1 mph - N/A   Clear
4:53 PM 60.1 °F 46.9 °F 62% 30.32 in 10.0 mi SSW 10.4 mph - N/A   Clear
5:53 PM 55.0 °F 46.9 °F 74% 30.32 in 10.0 mi SSW 5.8 mph - N/A   Clear
6:53 PM 53.1 °F 46.9 °F 80% 30.32 in 10.0 mi Calm Calm - N/A   Partly Cloudy
7:53 PM 48.0 °F 45.0 °F 89% 30.33 in 10.0 mi Calm Calm - N/A   Clear
8:53 PM 46.9 °F 44.1 °F 90% 30.33 in 10.0 mi Calm Calm - N/A   Clear
9:53 PM 45.0 °F 43.0 °F 93% 30.32 in 8.0 mi Calm Calm - N/A   Clear
10:53 PM 43.0 °F 42.1 °F 97% 30.32 in 7.0 mi Calm Calm - N/A   Clear
11:53 PM 42.1 °F 39.9 °F 92% 30.32 in 7.0 mi Calm Calm - N/A   Clear